Friday, October 24, 2014
07:53 UTC
  |  Log In   |  Register Free
Airport Search:

Comanche County-City Airport
(KMKN)

Comanche County-City Airport Diagram
No Airport Diagram Available

FAA data valid effective September 18, 2014 - November 13, 2014 (unless otherwise noted).

 
 
 
 
 
 
 
 
 
 
 
 
 
 

Current Aviation Weather for Comanche County-City Airport (KMKN)

The most recent METAR observation for KMKN was updated at: 0713
METAR Summary (Translated METAR)
KMKN
240655Z AUTO 15003KT 10SM CLR 18/15 A3013 RMK AO2 T01760151
KBWD
240655Z AUTO 13005KT 10SM BKN044 18/15 A3013 RMK AO2
(19.7 nm SW from KMKN)
KMNZ
240655Z AUTO 13008KT 10SM CLR 16/14 A3014 RMK AO2 T01630135
(27.6 nm SE from KMKN)
TAF
No TAF information found within 50 nm of KMKN
  Airport Weather Conditions for KMKN

 Current Weather at MKN
64° F
Fair
Southeast winds at 3.5 mph
MKN NOAA Radar

Pressure: 30.13 in
Humidity: 85%
Wind: Southeast at 3.5 MPH (3 KT)
Dew Point: 59.2°F
Visibility: 10.00 mi


Airport Weather Forecast for KMKN

Translated METAR and TAF for KMKN
Translated METAR for KMKN (0748 UTC 24 October 2014)
found at http://aviationweather.gov/adds/metars/
 
METAR text: KMKN 240735Z AUTO 17004KT 10SM CLR 17/15 A3012 RMK AO2 T01720150
Conditions at: KMKN (COMANCHE , TX, US) observed 0735 UTC 24 October 2014
Temperature: 17.2°C (63°F)
Dewpoint: 15.0°C (59°F) [RH = 87%]
Pressure (altimeter): 30.12 inches Hg (1020.1 mb)
Winds: from the S (170 degrees) at 5 MPH (4 knots; 2.1 m/s)
Visibility: 10 or more miles (16+ km)
Ceiling: at least 12,000 feet AGL
Clouds: sky clear below 12,000 feet AGL
Weather: automated observation with no human augmentation;
there may or may not be significant weather present at this time
Translated TAF for KMKN

There is no translated TAF available for this airport

Find All Airport Services Find A Hotel Find A Rental Car Find A Golf Course Find A Restaurant $100 Hamburger



FBO's on the Field
FBO Company Facility Photos Services Transportation Aviation Fuel Prices: Prices include tax
Catering Weather Repair Courtesy Rental Type 100LL JetA JetA+ MOGAS 8087
 
Comanche County/City Airport

This FBO has not yet been rated
FS:Avfuel
Last Updated: Oct-17
Login to update fuel prices
SS:
Contact Comanche County/City AirportMore FBO Information
 
Add another FBO Facility Photos Catering Weather Repair Courtesy Rental Type 100LL JetA JetA+ MOGAS 8087
Services Transportation Aviation Fuel Prices: Prices include tax


model-print
model-print
model-print
model-print